KO4RJX-11 Weather Reports


time (UTC)temp
F
wind
direction
speed
knots
gust
knots
rain 1hr
in
rain 24hr
in
rain mn
in
humidity
%
barometer
mb
20260510211309 84 285 1.7 5.2 0.00 0.00 0.00 33 1008.6
20260510210840 83 305 1.7 7.0 0.00 0.00 0.00 33 1008.6
20260510205949 83 249 3.5 6.1 0.00 0.00 0.00 34 1009.0
20260510205309 84 230 3.5 5.2 0.00 0.00 0.00 33 1008.6
20260510204629 84 253 1.7 6.1 0.00 0.00 0.00 35 1008.6
20260510204203 84 296 2.6 6.1 0.00 0.00 0.00 32 1008.6
20260510203310 84 343 2.6 6.1 0.00 0.00 0.00 34 1009.0
20260510202629 85 232 3.5 6.1 0.00 0.00 0.00 34 1009.0
20260510201950 83 271 1.7 5.2 0.00 0.00 0.00 34 1008.6
20260510201309 83 222 3.5 7.0 0.00 0.00 0.00 34 1009.0
20260510200629 83 233 3.5 7.0 0.00 0.00 0.00 33 1009.0
20260510195949 84 289 2.6 6.1 0.00 0.00 0.00 34 1009.0
20260510195309 84 229 2.6 4.3 0.00 0.00 0.00 32 1009.0
20260510194629 83 3 1.7 4.3 0.00 0.00 0.00 33 1009.0
20260510193949 82 268 1.7 6.1 0.00 0.00 0.00 34 1009.0
20260510193309 82 318 1.7 4.3 0.00 0.00 0.00 36 1009.0
20260510192629 82 296 1.7 4.3 0.00 0.00 0.00 35 1009.0
20260510191949 81 248 1.7 6.1 0.00 0.00 0.00 35 1009.3
20260510191310 82 284 2.6 8.7 0.00 0.00 0.00 36 1009.3
20260510190630 83 235 5.2 8.7 0.00 0.00 0.00 34 1009.3
20260510185950 83 137 1.7 3.5 0.00 0.00 0.00 35 1009.3
20260510185310 82 246 1.7 4.3 0.00 0.00 0.00 36 1009.7
20260510184843 80 9 2.6 5.2 0.00 0.00 0.00 37 1009.7
20260510183950 80 356 2.6 5.2 0.00 0.00 0.00 38 1009.7
20260510183310 81 4 1.7 3.5 0.00 0.00 0.00 39 1009.7
20260510182845 80 309 0.9 4.3 0.00 0.00 0.00 40 1009.7
20260510181950 80 246 2.6 5.2 0.00 0.00 0.00 40 1009.7
20260510181310 80 240 3.5 5.2 0.00 0.00 0.00 39 1009.7
20260510180842 82 345 2.6 6.1 0.00 0.00 0.00 38 1009.7
20260510175950 82 259 1.7 4.3 0.00 0.00 0.00 42 1009.7
20260510175310 80 51 1.7 6.1 0.00 0.00 0.00 41 1009.7
20260510174630 81 12 2.6 6.1 0.00 0.00 0.00 41 1009.7
20260510173950 79 11 1.7 5.2 0.00 0.00 0.00 44 1009.7
20260510173520 79 69 1.7 7.8 0.00 0.00 0.00 42 1009.7
20260510172630 82 350 1.7 5.2 0.00 0.00 0.00 42 1009.7
20260510171951 80 153 1.7 6.1 0.00 0.00 0.00 42 1010.0
20260510171311 80 329 3.5 7.0 0.00 0.00 0.00 42 1010.0
20260510170630 82 0 3.5 7.0 0.00 0.00 0.00 40 1010.0
20260510170203 83 186 1.7 7.0 0.00 0.00 0.00 42 1010.0
20260510165310 81 198 3.5 7.8 0.00 0.00 0.00 42 1010.0
20260510164630 81 255 4.3 7.8 0.00 0.00 0.00 43 1010.0
20260510163950 80 332 1.7 4.3 0.00 0.00 0.00 46 1010.0
20260510163311 79 342 1.7 7.8 0.00 0.00 0.00 48 1010.3
20260510162630 78 352 4.3 7.8 0.00 0.00 0.00 46 1010.3
20260510161950 80 69 1.7 3.5 0.00 0.00 0.00 49 1010.3
20260510161523 78 102 0.9 5.2 0.00 0.00 0.00 48 1010.3
20260510160843 77 40 1.7 6.1 0.00 0.00 0.00 50 1010.3
20260510155951 77 45 1.7 8.7 0.00 0.00 0.00 52 1010.3
20260510155310 77 41 2.6 6.1 0.00 0.00 0.00 52 1010.7
20260510154631 77 316 2.6 5.2 0.00 0.00 0.00 56 1010.7
20260510153951 77 93 3.5 7.0 0.00 0.00 0.00 53 1010.7
20260510153310 76 340 1.7 7.0 0.00 0.00 0.00 55 1010.7
20260510152630 78 21 1.7 4.3 0.00 0.00 0.00 54 1010.7
20260510151950 77 281 1.7 5.2 0.00 0.00 0.00 56 1010.3
20260510151310 77 349 3.5 5.2 0.00 0.00 0.00 56 1010.3
20260510150630 76 128 1.7 5.2 0.00 0.00 0.00 59 1010.3
20260510145950 75 19 2.6 7.0 0.00 0.00 0.00 59 1010.7
20260510145520 75 42 1.7 6.1 0.00 0.00 0.00 59 1010.3
20260510144841 74 25 4.3 6.1 0.00 0.00 0.00 62 1010.3
20260510143951 74 53 2.6 5.2 0.00 0.00 0.00 62 1010.3
20260510143310 74 23 2.6 5.2 0.00 0.00 0.00 63 1010.3
20260510142630 75 38 2.6 5.2 0.00 0.00 0.00 63 1010.3
20260510141951 74 0 1.7 4.3 0.00 0.00 0.00 65 1010.3
20260510141311 73 43 1.7 5.2 0.00 0.00 0.00 66 1010.3
20260510140844 73 4 3.5 5.2 0.00 0.00 0.00 68 1010.3
20260510135950 73 2 3.5 5.2 0.00 0.00 0.00 65 1010.3
20260510135310 73 335 0.9 4.3 0.00 0.00 0.00 66 1010.3
20260510134630 73 312 0.9 3.5 0.00 0.00 0.00 69 1010.3
20260510133950 72 278 0.9 2.6 0.00 0.00 0.00 68 1010.3
20260510133310 71 23 1.7 5.2 0.00 0.00 0.00 70 1010.3
20260510132630 72 4 2.6 5.2 0.00 0.00 0.00 70 1010.0
20260510131950 72 66 0.9 4.3 0.00 0.00 0.00 70 1010.0
20260510131310 71 13 1.7 3.5 0.00 0.00 0.00 70 1010.0
20260510130840 71 208 0.9 4.3 0.00 0.00 0.00 71 1010.0
20260510125951 70 355 2.6 4.3 0.00 0.00 0.00 73 1010.0
20260510125310 70 206 0.9 3.5 0.00 0.00 0.00 74 1010.0
20260510124630 69 327 1.7 2.6 0.00 0.00 0.00 77 1010.0
20260510123951 69 287 0.9 2.6 0.00 0.00 0.00 79 1010.0
20260510123311 68 295 0.9 6.1 0.00 0.00 0.00 81 1010.0
20260510122630 67 276 1.7 5.2 0.00 0.00 0.00 82 1009.7
20260510121950 67 280 1.7 5.2 0.00 0.00 0.00 83 1009.7
20260510121520 66 295 1.7 3.5 0.00 0.00 0.00 86 1009.7
20260510120630 65 258 2.6 3.5 0.00 0.00 0.00 88 1009.7
20260510115950 64 279 0.9 2.6 0.00 0.00 0.00 90 1009.7
20260510115310 64 280 0.9 3.5 0.00 0.00 0.00 92 1009.7
20260510114631 63 247 1.7 2.6 0.00 0.00 0.00 93 1009.3
20260510113950 63 241 1.7 2.6 0.00 0.00 0.00 94 1009.3
20260510113310 63 221 1.7 3.5 0.00 0.00 0.00 94 1009.3
20260510112630 63 215 0.9 2.6 0.00 0.00 0.00 93 1009.3
20260510112205 63 219 1.7 3.5 0.00 0.00 0.00 94 1009.0
20260510111310 63 223 1.7 3.5 0.00 0.00 0.00 94 1009.0
20260510110841 62 240 0.9 2.6 0.00 0.00 0.00 95 1009.0
20260510105950 62 245 0.9 2.6 0.00 0.00 0.00 95 1009.0
20260510105310 62 219 0.9 3.5 0.00 0.00 0.00 95 1009.0
20260510104843 62 201 1.7 3.5 0.00 0.00 0.00 95 1009.0
20260510103950 62 253 1.7 3.5 0.00 0.00 0.00 95 1008.6
20260510103519 62 268 1.7 3.5 0.00 0.00 0.00 95 1008.3
20260510102630 62 278 0.9 2.6 0.00 0.00 0.00 95 1008.3
20260510101950 62 271 0.9 3.5 0.00 0.00 0.00 95 1008.3
20260510101310 62 269 1.7 4.3 0.00 0.00 0.00 95 1007.9
20260510100630 62 272 0.9 3.5 0.00 0.00 0.00 95 1007.9
20260510095950 62 234 1.7 4.3 0.00 0.00 0.00 95 1007.9
20260510095310 62 226 1.7 4.3 0.00 0.00 0.00 94 1007.9
20260510094630 62 221 1.7 2.6 0.00 0.00 0.00 95 1007.9
20260510094159 62 260 1.7 3.5 0.00 0.00 0.00 95 1007.9
20260510093311 62 222 2.6 5.2 0.00 0.00 0.00 94 1007.9
20260510092630 62 223 2.6 5.2 0.00 0.00 0.00 94 1007.6
20260510091950 63 198 2.6 4.3 0.00 0.00 0.00 93 1007.6
20260510091310 63 207 1.7 2.6 0.00 0.00 0.00 93 1007.3
20260510090843 63 248 1.7 4.3 0.00 0.00 0.00 93 1007.6
20260510085950 63 254 1.7 4.3 0.00 0.00 0.00 93 1007.3
20260510085310 63 243 1.7 3.5 0.00 0.00 0.00 93 1007.3
20260510084630 63 282 1.7 2.6 0.00 0.00 0.00 93 1007.3
20260510083950 63 284 1.7 3.5 0.00 0.00 0.00 93 1007.3
20260510083311 63 286 0.9 2.6 0.00 0.00 0.00 94 1007.3
20260510082630 62 288 0.9 3.5 0.00 0.00 0.00 94 1007.3
20260510081950 63 245 1.7 3.5 0.00 0.00 0.00 94 1007.3
20260510081310 63 236 1.7 3.5 0.00 0.00 0.00 94 1007.3
20260510080630 62 204 1.7 2.6 0.00 0.00 0.00 95 1007.3
20260510075950 62 221 1.7 2.6 0.00 0.00 0.00 95 1006.9
20260510075311 62 223 1.7 2.6 0.00 0.00 0.00 95 1006.9
20260510074840 63 221 0.9 2.6 0.00 0.00 0.00 94 1006.9
20260510073950 63 222 1.7 2.6 0.00 0.00 0.00 94 1006.9
20260510073310 63 211 1.7 2.6 0.00 0.00 0.00 94 1006.9
20260510072842 63 203 0.9 2.6 0.00 0.00 0.00 94 1006.9
20260510071950 63 211 1.7 2.6 0.00 0.00 0.00 94 1006.9
20260510071310 63 198 0.9 1.7 0.00 0.00 0.00 95 1006.9
20260510070630 63 213 0.9 2.6 0.00 0.00 0.00 95 1006.9
20260510065950 63 207 1.7 2.6 0.00 0.00 0.00 95 1007.3
20260510065310 63 218 1.7 2.6 0.00 0.00 0.00 96 1007.3
20260510064630 62 206 1.7 2.6 0.00 0.00 0.00 98 1006.9
20260510063950 62 180 0.9 1.7 0.00 0.00 0.00 98 1006.9
20260510063310 62 209 0.9 1.7 0.00 0.00 0.00 96 1006.9
20260510062630 63 180 0.0 1.7 0.00 0.00 0.00 97 1006.9
20260510061951 63 279 0.9 1.7 0.00 0.00 0.00 96 1006.9
20260510061310 63 248 0.9 0.9 0.00 0.00 0.00 96 1006.9
20260510060630 63 280 0.9 1.7 0.00 0.00 0.00 96 1006.9
20260510055950 63 195 0.9 1.7 0.00 0.00 0.00 97 1006.9
20260510055310 63 201 0.9 1.7 0.00 0.00 0.00 95 1007.3
20260510054630 63 192 0.9 1.7 0.00 0.00 0.00 96 1007.3
20260510053950 63 196 0.9 1.7 0.00 0.00 0.00 97 1007.3
20260510053310 63 169 0.9 1.7 0.00 0.00 0.00 96 1007.3
20260510052843 63 164 0.9 1.7 0.00 0.00 0.00 96 1007.3
20260510051950 63 198 0.9 1.7 0.00 0.00 0.00 97 1007.6
20260510051519 63 172 0.9 1.7 0.00 0.00 0.00 95 1007.3
20260510050630 63 195 0.9 1.7 0.00 0.00 0.00 96 1007.3
20260510045950 63 183 0.9 1.7 0.00 0.00 0.00 95 1007.6
20260510045310 64 196 0.0 1.7 0.00 0.00 0.00 95 1007.6
20260510044631 63 183 0.9 1.7 0.00 0.00 0.00 96 1007.6
20260510044203 63 173 0.9 1.7 0.00 0.00 0.00 95 1007.6
20260510043310 64 187 1.7 1.7 0.00 0.00 0.00 93 1007.6
20260510042844 64 165 0.9 2.6 0.00 0.00 0.00 93 1007.6
20260510041951 64 167 0.9 1.7 0.00 0.00 0.00 93 1007.3
20260510041310 64 165 0.9 1.7 0.00 0.00 0.00 93 1007.3
20260510040630 64 193 0.9 1.7 0.00 0.00 0.00 92 1007.3
20260510035950 65 221 0.9 1.7 0.00 0.00 0.00 92 1007.3
20260510035522 64 169 0.9 1.7 0.00 0.00 0.00 92 1007.3
20260510034630 64 177 0.9 1.7 0.00 0.00 0.00 92 1007.3
20260510034203 64 183 0.9 1.7 0.00 0.00 0.00 94 1007.3
20260510033310 64 190 0.9 1.7 0.00 0.00 0.00 93 1007.3
20260510032631 64 246 0.9 1.7 0.00 0.00 0.00 91 1007.3
20260510031950 65 205 0.0 1.7 0.00 0.00 0.00 90 1006.9
20260510031310 65 220 0.9 2.6 0.00 0.00 0.00 91 1006.9
20260510030631 64 191 0.9 2.6 0.00 0.00 0.00 94 1006.9
20260510025950 64 174 0.9 1.7 0.00 0.00 0.00 94 1006.9
20260510025310 64 188 0.9 1.7 0.00 0.00 0.00 93 1006.9
20260510024630 64 202 0.9 1.7 0.00 0.00 0.00 94 1006.9
20260510023950 64 229 0.9 1.7 0.00 0.00 0.00 93 1006.9
20260510023310 64 210 0.9 1.7 0.00 0.00 0.00 93 1006.9
20260510022630 64 217 0.9 1.7 0.00 0.00 0.00 93 1006.9
20260510021951 64 256 0.9 0.9 0.00 0.00 0.00 93 1006.9
20260510021521 64 196 0.9 0.9 0.00 0.00 0.00 93 1006.6
20260510020630 65 44 0.0 0.9 0.00 0.00 0.00 92 1006.6
20260510015950 65 286 0.0 1.7 0.00 0.00 0.00 92 1006.9
20260510015310 65 164 0.9 1.7 0.00 0.00 0.00 91 1006.9
20260510014630 65 98 0.0 0.9 0.00 0.00 0.00 89 1006.6
20260510013950 66 165 0.9 1.7 0.00 0.00 0.00 89 1006.2
20260510013310 65 154 0.9 1.7 0.00 0.00 0.00 90 1006.2
20260510012630 65 150 0.9 1.7 0.00 0.00 0.00 91 1006.2
20260510011950 65 174 0.9 1.7 0.00 0.00 0.00 90 1006.2
20260510011310 66 147 0.9 1.7 0.00 0.00 0.00 90 1006.2
20260510010630 66 90 0.9 1.7 0.00 0.00 0.00 88 1006.2
20260510005950 66 141 0.9 1.7 0.00 0.00 0.00 88 1006.2
20260510005310 67 161 0.9 1.7 0.00 0.00 0.00 87 1006.2
20260510004630 67 121 0.9 0.9 0.00 0.00 0.00 87 1005.9
20260510003950 67 147 0.9 0.9 0.00 0.00 0.00 84 1005.9
20260510003310 68 154 0.9 0.9 0.00 0.00 0.00 84 1005.9
20260510002630 68 172 0.9 0.9 0.00 0.00 0.00 83 1005.9
20260510002202 68 139 0.9 1.7 0.00 0.00 0.00 82 1005.9
20260510001523 69 176 0.9 1.7 0.00 0.00 0.00 82 1005.9
20260510000630 69 163 0.9 1.7 0.00 0.00 0.00 80 1005.9
20260509235950 69 189 0.9 0.9 0.00 0.00 0.00 82 1005.9
20260509235311 69 166 0.0 1.7 0.00 0.00 0.00 80 1005.9
20260509234630 70 168 0.9 1.7 0.00 0.00 0.00 79 1005.9
20260509233950 71 190 0.9 1.7 0.00 0.00 0.00 76 1005.6
20260509233521 71 174 0.9 1.7 0.00 0.00 0.00 73 1005.6
20260509232630 72 251 0.9 3.5 0.00 0.00 0.00 71 1005.2
20260509231950 72 205 1.7 3.5 0.00 0.00 0.00 71 1005.6
20260509231523 72 246 1.7 3.5 0.00 0.00 0.00 70 1005.2
20260509230844 72 194 0.9 4.3 0.00 0.00 0.00 71 1005.2
20260509225950 73 227 1.7 4.3 0.00 0.00 0.00 69 1005.2
20260509225311 73 205 1.7 3.5 0.00 0.00 0.00 68 1005.2
20260509224630 73 247 1.7 2.6 0.00 0.00 0.00 68 1005.2
20260509223950 72 202 0.9 4.3 0.00 0.00 0.00 69 1005.2
20260509223310 72 217 2.6 4.3 0.00 0.00 0.00 69 1005.2
20260509222630 72 221 1.7 3.5 0.00 0.00 0.00 70 1005.2
20260509221950 72 217 2.6 6.1 0.00 0.00 0.00 70 1005.2
20260509221310 72 239 3.5 6.1 0.00 0.00 0.00 69 1005.2
20260509220631 72 229 3.5 5.2 0.00 0.00 0.00 69 1005.6
20260509220200 72 214 1.7 5.2 0.00 0.00 0.00 68 1005.2
20260509215310 72 234 2.6 5.2 0.00 0.00 0.00 68 1005.2
20260509214630 73 193 1.7 6.1 0.00 0.00 0.00 68 1005.2
20260509213950 72 272 1.7 6.1 0.00 0.00 0.00 67 1005.2
20260509213310 72 204 2.6 5.2 0.00 0.00 0.00 68 1005.2
20260509212630 72 202 2.6 6.1 0.00 0.00 0.00 69 1005.2
20260509211950 72 241 2.6 6.1 0.00 0.00 0.00 67 1005.2